sat.trackr.live / text

‹ back to catalog

STARLINK-30398

NORAD 57815 · 2023-138H

PAYLOAD ACTIVE UNKNOWN

§ Identity

Operator
Country
US
Launch date
2023-09-09
Launch site
AFETR
Launch vehicle
Mass (kg)
RCS (m²)

Purposes: comms

External: N2YO · Heavens-Above · Gunter

§ Orbital elements

Epoch: 2026-09-20T22:01:45.778080Z

Period
94.27 min
Inclination
43.0035°
Eccentricity
0.0001131
Mean motion
15.27579175 rev/d
Perigee alt
482.3 km
Apogee alt
483.8 km
Semi-major
6,861.2 km
B*
2.4836e-5
RAAN
211.8339°
Arg perigee
268.2618°
Mean anomaly
91.8104°
Rev number
16,849

§ Raw data

STARLINK-303981 57815U 23138H   26263.91789095  .00000421  00000+0  24836-4 0  99932 57815  43.0035 211.8339 0001131 268.2618  91.8104 15.27579175168499

JSON: /api/v1/satellites/57815 · /tle

For live sub-satellite position, see the globe view (requires WebGL).

§ Visibility from observer

Set your observer location to see the next 7 days of passes ≥ 10°. The values pass through the URL so the page stays shareable.

No JS? Fill the form by hand. The geolocation button needs JavaScript.